Regional Weather Roundup
Issued by NWS Grand Forks, ND

Home | Current Version | Previous Version | Graphics & Text | Print | Product List | Glossary On
Versions: 1 2 3 4 5 6 7 8 9 10 11 12 13 14 15 16 17 18 19 20 21 22 23 24 25 26 27 28 29 30 31 32 33 34 35 36 37 38 39 40 41 42 43 44 45 46 47 48 49 50
000
ASUS43 KFGF 272010
RWRFGF
PRAIRIE TO PINES  WEATHER ROUNDUP
NATIONAL WEATHER SERVICE EASTERN NORTH DAKOTA/GRAND FORKS ND
300 PM CDT SAT MAY 27 2017

 **SATELLITE DATA USED TO AUGMENT SKY COVER AT AUTOMATED STATIONS**
 *****  WEATHER ACROSS EASTERN NORTH DAKOTA  *****

CITY           SKY/WX    TMP DP  RH WIND       PRES   REMARKS
GRAND FORKS    PTSUNNY   77  42  28 W13G23    29.73F
GRAND FRKS AFB PTSUNNY   72  40  31 W13G20    29.74F
DEVILS LAKE    PTSUNNY   70  41  34 NW23      29.74F
FARGO          FAIR      78  37  22 SW20G25   29.77F
WAHPETON ARPT  FAIR      73  32  21 SW13G20   29.81F
$$

 ***** WEATHER ACROSS CENTRAL AND WESTERN NORTH DAKOTA  *****

CITY           SKY/WX    TMP DP  RH WIND       PRES   REMARKS
BISMARCK       FAIR      78  38  23 NW14G30   29.82F
MINOT          PTSUNNY   73  36  25 SW15G28   29.75F
JAMESTOWN      CLOUDY    73  40  30 W15       29.79F
MINOT AFB      FAIR      71  35  26 NW15      29.73F
GARRISON         N/A     65  39  38 N14       29.79F
WILLISTON      PTSUNNY   71  33  24 W18G32    29.82S
DICKINSON      PTSUNNY   73  35  25 W23G33    29.84F
HETTINGER      PTSUNNY   74  35  24 NW21G37   29.90F
$$

 *****  OTHER AIRPORT OBSERVATIONS IN OUR AREA  *****

CITY           SKY/WX    TMP DP  RH WIND       PRES   REMARKS
WALHALLA       NOT AVBL
GRAFTON AIRPOR MOCLDY    72  43  35 W15G21    29.74F
VALLEY CITY AR FAIR      72  37  28 W18G24    29.81S
CANDO          NOT AVBL
CAVALIER APRT  FAIR      70  39  32 W9G15     29.71S
GWINNER        PTCLDY    75  37  25 MISG      29.81F
SHEYENNE NWR     N/A     79  39  24 W14       29.95S
ROLLA            N/A     68  36  30 W21G28    29.73S
 ***** THE ABOVE OBSERVATIONS ARE NON NWS ARE NOT QUALITY
       CONTROLLED AND MAY MIS-REPORT RAIN FOR SNOW...
$$

  *****  WEATHER ACROSS NORTHERN MINNESOTA  *****

CITY           SKY/WX    TMP DP  RH WIND       PRES   REMARKS
FLAG ISLAND    LGT RAIN  63  46  55 SW14      29.70S
WARROAD        NOT AVBL
ROSEAU         FAIR      73  37  27 W14G22    29.72S
HALLOCK        FAIR      72  32  23 W16       29.71S
THF RVR FALLS  NOT AVBL
BAUDETTE       PTSUNNY   71  38  29 W15G21    29.73S
WASKISH        CLOUDY    72  43  35 SW14      29.77S
CROOKSTON      PTSUNNY   73  39  29 W16       29.75F
STEPHEN NDAWN    N/A     73  39  29 W13         N/A
GREENBUSH NDAW   N/A     72  36  26 W12         N/A
$$
  *****  WEATHER ACROSS CENTRAL AND WEST MINNESOTA  *****

CITY           SKY/WX    TMP DP  RH WIND       PRES   REMARKS
FOSSTON        FAIR      72  36  26 W13G20    29.79S
BEMIDJI        FAIR      74  38  27 W17G24    29.78F
PARK RAPIDS    PTSUNNY   73  37  27 SW12      29.81F
ELBOW LAKE     FAIR      73  42  33 SW10      29.84F
WADENA         FAIR      72  43  35 SW14      29.83F
DETROIT LAKES  FAIR      72  37  28 W10       29.82F
MOORHEAD       FAIR      75  34  22 W16G25    29.78F
FERGUS FALLS   PTSUNNY   72  39  30 W13       29.80S
MORRIS MN      FAIR      75  45  33 S9        29.85F
STAPLES        LGT RAIN  68  39  34 S10       29.84S
$$
  *****  WEATHER ELSEWHERE ACROSS MINNESOTA  *****

CITY           SKY/WX    TMP DP  RH WIND       PRES   REMARKS
DULUTH         PTSUNNY   73  41  31 W15G24    29.84S
INTRNTL FALLS  PTSUNNY   72  37  28 W9        29.75S
ELY            FAIR      70  39  32 W8        29.81S
CLOQUET        FAIR      72  34  25 SW7       29.84F
WHEATON        FAIR      73  36  25 SW14      29.85F
BRAINERD       PTSUNNY   72  41  32 SW9       29.84F
HIBBING        FAIR      73  39  29 W8G20     29.81F
ALEXANDRIA     CLOUDY    68  41  37 S9        29.87F
SAINT CLOUD    FAIR      71  44  37 SW9G17    29.87F
MINNEAPOLIS    CLOUDY    69  48  47 W8        29.89F
$$

  *****  WEATHER ACROSS SOUTH DAKOTA  *****

CITY           SKY/WX    TMP DP  RH WIND       PRES   REMARKS
SIOUX FALLS    PTSUNNY   65  53  65 SW8       29.93F
BROOKINGS      PTSUNNY   68  45  43 SW12      29.92F
WATERTOWN      CLOUDY    67  38  34 W12       29.89F
HURON          FAIR      69  45  41 W9        29.93F
SISSETON         N/A     76  44  32 W14G28    29.83F
ABERDEEN       FAIR      76  36  23 W13G24    29.85F
MITCHELL       CLOUDY    69  46  43 NW13      29.94F
PIERRE         FAIR      73  43  33 SW9       29.90F
MOBRIDGE       FAIR      75  35  23 NW16G24   29.85F
RAPID CITY     FAIR      71  35  26 NW10G23   30.00F
$$

  *****  SOME WEATHER IN NEARBY STATES *****

CITY           SKY/WX    TMP DP  RH WIND       PRES   REMARKS
GLASGOW MT     FAIR      75  34  22 NW15      29.91S
GREAT FALLS MT PTSUNNY   72  32  23 NW8       30.09S
CHEYENNE WY    FAIR      50  37  61 N21G28    30.15R
SCOTTSBLUFF NE PTSUNNY   62  43  49 N13G26    30.08S
OMAHA NE       PTSUNNY   70  57  63 NE13      29.84F
DES MOINES IA  CLOUDY    64  60  87 NE9       29.85R
DAVENPORT IA   FAIR      74  61  63 NE7       29.85F
CHICAGO IL     PTSUNNY   76  53  44 CALM      29.87F
EAU CLAIRE WI  FAIR      68  47  46 NW10      29.89R
LA CROSSE WI   FAIR      76  52  43 N6        29.87F
$$

  *****  SOME NATIONAL WEATHER *****

CITY           SKY/WX    TMP DP  RH WIND       PRES   REMARKS
LA GUARDIA NY  PTSUNNY   71  53  52 N5        29.86S
RALEIGH NC     PTSUNNY   87  67  51 SW15      29.89F HX  90
ATLANTA GA     PTSUNNY   83  66  56 SW9       30.01F
NEW ORLEANS LA PTSUNNY   88  76  67 S13       30.02F HX  99
OKLAHOMA CITY  PTSUNNY   90  65  43 SW17      29.74F HX  92
ALBUQUERQUE NM FAIR      80  13   8 W12       30.06F
SALT LAKE CITY FAIR      67  35  30 NW9G18    30.22S
LOS ANGELES CA FAIR      68  54  60 W13       30.07S
BOISE ID       FAIR      73  39  29 VRB3      30.17F
SEATTLE WA     FAIR      77  50  38 W8        30.10S
$$

*** WEATHER ACROSS MANITOBA...SASKATCHEWAN AND ONTARIO ***
                ***ONTARIO***

CITY           SKY/WX    TMP DP  RH WIND       PRES   REMARKS
GERALDTON      CLOUDY    72  57  60 S13G20    29.73F
THUNDER BAY    CLOUDY    63  48  59 NE8       29.77S
SIOUX LOOKOUT  PTSUNNY   66  41  39 SW6       29.72S
TORONTO        PTSUNNY   66  57  72 SE7       29.89S
BIG TROUT LK   CLOUDY    61  52  72 VRB2      29.62F
PICKLE LAKE    PTSUNNY   72  41  33 S16G24    29.67F
DRYDEN         MOSUNNY   72  37  28 SW25      29.71S
KENORA         PTSUNNY   70  41  35 SW14G21   29.71S
$$
                *** MANITOBA***

CITY           SKY/WX    TMP DP  RH WIND       PRES   REMARKS
BRANDON        PTSUNNY   66  41  39 NW20G28   29.71F
DAUPHIN        MOSUNNY   63  46  55 N9        29.69R
ISLAND LAKE    NOT AVBL
PILOT MOUND      N/A     68  36  30 SW17G23     N/A
THE PAS        CLOUDY    50  45  81 NW12      29.68R
THOMPSON       CLOUDY    50  46  87 N8        29.63R
WINNIPEG       PTSUNNY   68  41  37 NW21      29.69R
LYNN LAKE      CLOUDY    43  41  93 N9        29.73R
CHURCHILL      CLOUDY    41  37  87 E9        29.74R
GILLAM         PTSUNNY   59  52  77 N7        29.62R
$$
                ***SASKATCHEWAN***

CITY           SKY/WX    TMP DP  RH WIND       PRES   REMARKS
ESTEVAN        TSTM      52  48  87 VRB6      29.82R
KINDERSLEY     MOSUNNY   73  39  29 NW17G29   29.89S
LLOYDMINSTER   MOSUNNY   70  39  32 N15G24    29.90S
PRINCE ALBERT  MOSUNNY   68  41  37 N18G25    29.78S
REGINA         MOSUNNY   70  36  28 N25G39    29.78S
YORKTON          N/A     63  39  42 NW18G28   29.73F
N. BATTLEFORD  SUNNY     70  37  30 NW23G30   29.87S
LA RONGE       PTSUNNY   57  46  67 NW13G21   29.81R
SASKATOON      SUNNY     70  34  26 N21G31    29.83S
SWIFT CURRENT  PTSUNNY   72  37  28 NW28G37   29.89F
$$
NOTE: THESE ARE AUTOMATED STATIONS WITH LIMITED QUALITY CONTROL
      "FAIR" INDICATES FEW OR NO CLOUDS BELOW 12,000 FEET WITH NO
      SIGNIFICANT WEATHER AND/OR OBSTRUCTIONS TO VISIBILITY.
      SKY/WX - SKY CONDITION AND SIGNIFICANT WEATHER.
      TMP - AIR TEMPERATURE.    DP   - DEWPOINT TEMPERATURE.
      RH  - RELATIVE HUMIDITY.  PRES - PRESSURE.
      HX  - HEAT INDEX.         WCI  - WIND CHILL INDEX.
$



USA.gov is the U.S. government's official web portal to all federal, state and local government web resources and services.